Regional Weather Roundup
Issued by NWS

Home | Current Version | Previous Version | Text Only | Print | Product List | Glossary Off
Versions: 1 2 3 4 5 6 7 8 9 10 11 12 13 14 15 16 17 18 19 20 21 22 23 24 25 26 27 28 29 30 31 32 33 34 35 36 37 38 39 40 41 42 43 44 45 46 47 48 49 50

000
ASUS43 KMKX 010600
RWRWI

WISCONSIN REGIONAL WEATHER ROUNDUP
NATIONAL WEATHER SERVICE MILWAUKEE/SULLIVAN WI
100 AM CDT WED OCT 01 2014

NOTE: "FAIR" INDICATES FEW OR NO CLOUDS BELOW 12,000 FEET WITH NO
SIGNIFICANT WEATHER AND/OR OBSTRUCTIONS TO VISIBILITY.

WIZ001-002-006>008-014>016-023>028-010700-
NORTHWEST WISCONSIN

CITY           SKY/WX    TMP DP  RH WIND       PRES   REMARKS
SUPERIOR ARPT  CLOUDY    47  46  95 E7        29.94F
ASHLAND        CLOUDY    40  38  93 CALM      29.94F
6HR MIN TEMP:  36; 6HR MAX TEMP:  48;

HAYWARD        CLOUDY    47  43  86 SE10      29.91F
6HR MIN TEMP:  45; 6HR MAX TEMP:  55;

SIREN          CLOUDY    50  43  76 SE7       29.89R
CUMBERLAND     CLOUDY    45  41  87 SE12G18   29.91S
RICE LAKE      CLOUDY    46  42  85 SE15G22   29.95R
6HR MIN TEMP:  46; 6HR MAX TEMP:  51;

CHETEK         CLOUDY    46  43  90 E13G20    29.94F
LADYSMITH      CLOUDY    46  43  88 SE12      29.99F
EAU CLAIRE     CLOUDY    47  41  80 S8        29.97R
6HR MIN TEMP:  47; 6HR MAX TEMP:  52;

MENOMONIE      CLOUDY    47  42  84 SE10      29.97R
NEW RICHMOND   CLOUDY    48  43  81 SE9G17    29.92R
OSCEOLA        CLOUDY    50  45  83 SE8       29.94R
$$

WIZ003>005-009-010-017-018-010700-
NORTH CENTRAL WISCONSIN

CITY           SKY/WX    TMP DP  RH WIND       PRES   REMARKS
MANITOWISH WTR CLOUDY    44  44 100 SE13      29.98F
ARBOR VITAE    CLOUDY    45  42  91 SE10      30.00F
WOODRUFF       CLOUDY    45  42  91 SE10      30.00F
RHINELANDER    CLOUDY    43  42  97 SE8       30.03S
6HR MIN TEMP:  43; 6HR MAX TEMP:  50;

EAGLE RIVER    CLOUDY    44  43  97 S8        30.02R
LAND O LAKES   CLOUDY    45  43  93 S9        30.02S
PHILLIPS       CLOUDY    44  42  92 SE12G17   29.97F
6HR MIN TEMP:  44; 6HR MAX TEMP:  51;

TOMAHAWK       CLOUDY    43  41  93 SE5       30.02F
MEDFORD        CLOUDY    43  42  95 SE7       30.00F FOG
MERRILL        CLOUDY    44  43  95 SE7       30.02F
$$

WIZ029-030-035-036-043>047-010700-
CENTRAL WISCONSIN

CITY           SKY/WX    TMP DP  RH WIND       PRES   REMARKS
WAUSAU         CLOUDY    45  42  89 SE12      30.02S
6HR MIN TEMP:  45; 6HR MAX TEMP:  48;

MOSINEE        CLOUDY    43  43 100 SE7       30.04S FOG
MARSHFIELD     CLOUDY    47  43  86 SE13      30.00F
6HR MIN TEMP:  46; 6HR MAX TEMP:  49;

STEVENS POINT  CLOUDY    44  42  95 SE8       30.03F FOG
WAUPACA        CLOUDY    49  47  92 SE6       30.05S
WAUTOMA        NOT AVBL
WISC RAPIDS    CLOUDY    47  43  86 SE10      30.04S
6HR MIN TEMP:  47; 6HR MAX TEMP:  49;

CAMP DOUGLAS   NOT AVBL
$$

WIZ011>013-019>022-031-037>040-048>050-010700-
NORTHEAST WISCONSIN

CITY           SKY/WX    TMP DP  RH WIND       PRES   REMARKS
ANTIGO         CLOUDY    43  42  98 SE10      30.04F FOG
SHAWANO        CLOUDY    48  45  87 CALM      30.06S FOG
6HR MIN TEMP:  48; 6HR MAX TEMP:  49;

OCONTO         CLOUDY    48  48 100 CALM      30.05F
STURGEON BAY   NOT AVBL
GREEN BAY      CLOUDY    48  47  96 W3        30.05S FOG
6HR MIN TEMP:  48; 6HR MAX TEMP:  49;

MANITOWOC      NOT AVBL
APPLETON       CLOUDY    46  43  87 CALM      30.05F
CLINTONVILLE   CLOUDY    46  45  93 CALM      30.05F
OSHKOSH        CLOUDY    48  45  89 CALM      30.04F
6HR MIN TEMP:  48; 6HR MAX TEMP:  49;

$$

WIZ032>034-041-042-053>061-010700-
SOUTHWEST WISCONSIN

CITY           SKY/WX    TMP DP  RH WIND       PRES   REMARKS
LA CROSSE      CLOUDY    49  43  80 E6        29.96F
6HR MIN TEMP:  49; 6HR MAX TEMP:  53;

SPARTA         NOT AVBL
VIROQUA        CLOUDY    45  45  99 E12G18    29.95F
BOSCOBEL       MOCLDY    47  43  86 NE5       29.98F
6HR MIN TEMP:  46; 6HR MAX TEMP:  50;

PRAIRIE DU CHI PTCLDY    48  42  80 SE6       29.97S
PLATTEVILLE    PTCLDY    47  44  91 E12       29.98F
$$

WIZ056-057-062-063-064-067-068-010700-
SOUTH CENTRAL WISCONSIN

CITY           SKY/WX    TMP DP  RH WIND       PRES   REMARKS
REEDSBURG      CLOUDY    42  42  97 E5        30.00F
BARABOO/DELLS  CLOUDY    46  44  91 E5        30.01F
LONE ROCK      MOCLDY    48  42  80 E8        30.00F
MINERAL POINT  PTCLDY    46  43  87 E10       29.98F
MADISON        CLOUDY    49  44  83 E8        30.01F
6HR MIN TEMP:  43; 6HR MAX TEMP:  50;

MIDDLETON      CLOUDY    51  47  85 SE12G18   30.02S
WATERTOWN      CLOUDY    47  47 100 CALM      30.03S
MONROE         CLOUDY    48  45  87 E7        30.00S
JANESVILLE     CLOUDY    52  46  82 E7        30.00F
$$

WIZ051-052-058>065-066-070>072-010700-
SOUTHEAST WISCONSIN

CITY           SKY/WX    TMP DP  RH WIND       PRES   REMARKS
MILWAUKEE      CLOUDY    53  50  89 W5        30.02F
6HR MIN TEMP:  50; 6HR MAX TEMP:  53; 6HR PCP:  0.02;

WAUKESHA       CLOUDY    46  45  93 CALM      30.03F
MILWAUKEE/TIMM CLOUDY    48  46  93 CALM      30.04F
RACINE         CLOUDY    56  48  74 E10       30.03F
6HR MIN TEMP:  52; 6HR MAX TEMP:  56; 6HR PCP: TRACE;

BURLINGTON     CLOUDY    48  47  99 CALM      30.02S
KENOSHA        CLOUDY    52  50  93 N5        30.02F
6HR MIN TEMP:  51; 6HR MAX TEMP:  52;

FOND DU LAC    CLOUDY    48  45  89 CALM      30.04F
6HR MIN TEMP:  48; 6HR MAX TEMP:  49;

SHEBOYGAN      CLOUDY    49  47  93 CALM      30.04F
6HR MIN TEMP:  48; 6HR MAX TEMP:  49;

WEST BEND      CLOUDY    46  45  93 CALM      30.04F FOG
JUNEAU         CLOUDY    46  45  93 NE3       30.04S
$$

LSZ147-162-010700-
LAKE SUPERIOR

STATION/POSITION TIME  TEMP    WIND        PRES    WAVE
                       AIR SEA DIR/SP/G            HT/PER
                 (UTC) (F)     (DEG/KT/KT) (MB)    (FT/S)
W MID LAKE BUOY  0450   47 50  120/ 12/ 14 1016.3F   3/ 4
DEVILS ISLAND    0500   49     100/ 13/ 15 1015.2F
SAXON HARBOR     0540   40        CALM     1013.9F
$$

LMZ867-665-643>646-010700-
LAKE MICHIGAN

STATION/POSITION TIME  TEMP    WIND        PRES    WAVE
                       AIR SEA DIR/SP/G            HT/PER
                 (UTC) (F)     (DEG/KT/KT) (MB)    (FT/S)
CHAMBERS ISLAND  0500   52      CALM  /  2 1017.9F
S GREEN BAY BUOY 0500   51                 1018.7F
N MID LAKE BUOY  0450   54 58  130/ 14/ 16 1018.0S   2/ 4
NORTHPORT PIER   0500   55     110/  9/ 11 1017.6S
KEWAUNEE LAKESHO 0500   49      CALM  /  2 1016.7F
SHEBOYGAN LAKESH 0500   52 54   70/  4/  5 1018.1S
PORT WASHINGTON  0540   54     100/  7/ 10 1017.6F
ATWATER BUOY     0500   55     140/  6/ 10 1018.2F
MILWAUKEE LAKESH 0500   55     110/  9/ 11   N/A
S MID LAKE BUOY  0450   56 61  110/  2/  4 1017.4R   2/ 6
KENOSHA   LAKESH 0500   56     130/  5/  7 1016.6F
$$

TC  - TEMPERATURE IN CELSIUS
VSB - VISIBILITY IN STATUTE MILES
WCI - WIND CHILL INDEX
HX  - HEAT INDEX




USA.gov is the U.S. government's official web portal to all federal, state and local government web resources and services.